User: anonymous   Login
Location: Cronhütte
(48.9135°N, 9.6869°E)
Time: 04:54:42
(UTC+00:00)
Language:

Nimbus 7 Rocket - Orbit

View from above orbital plane
View from above orbital plane
View from above satellite
View from above satellite

Ground track
Ground track

The orbit data is extracted from the following two-line orbital elements,

1 11081U 78098B   24194.53282228  .00000082  00000-0  11094-3 0  9993
2 11081  99.3760 116.7182 0028097 235.3414 124.5092 13.85910385150193
Epoch (UTC): 12 July 2024 12:47:15
Eccentricity: 0.0028097
inclination: 99.3760°
perigee height: 922 km
apogee height: 963 km
right ascension of ascending node: 116.7182°
argument of perigee: 235.3414°
revolutions per day: 13.85910385
mean anomaly at epoch: 124.5092°
orbit number at epoch: 15019

The dashed part of the orbit path shows where the satellite is in the earth's shadow,  

DLR